Weather History for KITR - May, 2013

Change the Weather History Date:

Tuesday, May 21, 2013

  Actual Average Record
Temperature  
Mean Temperature 56 °F 60 °F  
Max Temperature 71 °F 75 °F 99 °F (1925)
Min Temperature 41 °F 46 °F 31 °F (1931)
Degree Days  
Heating Degree Days 7    
Growing Degree Days 8 (Base 50)    
Moisture  
Dew Point 35 °F    
Average Humidity 49    
Maximum Humidity 76    
Minimum Humidity 20    
Precipitation  
Precipitation 0.00 in 0.08 in 0.31 in (2014)
Month to date precipitation 1.73 1.60  
Year to date precipitation 5.13 4.75  
Sea Level Pressure  
Sea Level Pressure 29.85 in    
Wind  
Wind Speed 16 mph (NNW)    
Max Wind Speed 32 mph    
Max Gust Speed 41 mph    
Visibility 10 miles    
Events      
T = Trace of Precipitation, MM = Missing Value Source: NWS Daily Summary

Daily Weather History Graph

Daily Weather History Graph

Search for Another Location

Airport or City:

Trip Planner

Search our weather history database for the weather conditions in past years. The results will help you decide how hot, cold, wet, or windy it might be!

Date:

Astronomy

May. 21, 2013 Rise Set
Actual Time 5:30 AM MDT 8:01 PM MDT
Civil Twilight 4:59 AM MDT 8:32 PM MDT
Nautical Twilight 4:21 AM MDT 9:10 PM MDT
Astronomical Twilight 3:39 AM MDT 9:53 PM MDT
Moon 4:18 PM MDT (5/21) 2:58 AM MDT (5/21)
Length of Visible Light 15h 32m
Length of Day
14h 30m
Waxing Gibbous, 84% of the Moon is Illuminated
May 21
Waxing Gibbous
May 24
Full
May 31
Last Quarter
Jun 8
New
Jun 16
First Quarter

Hourly Weather History & Observations

Time (MDT) Temp. Windchill Dew Point Humidity Pressure Visibility Wind Dir Wind Speed Gust Speed Precip Events Conditions
12:53 AM 45.0 °F 39.3 °F 37.0 °F 74% 29.88 in 10.0 mi WNW 11.5 mph - N/A   Clear
1:53 AM 45.0 °F 40.1 °F 37.0 °F 74% 29.86 in 10.0 mi WNW 9.2 mph - N/A   Clear
2:53 AM 45.0 °F 38.9 °F 37.0 °F 74% 29.87 in 10.0 mi NW 12.7 mph - N/A   Clear
3:53 AM 46.0 °F 39.9 °F 37.9 °F 73% 29.88 in 10.0 mi NW 13.8 mph - N/A   Clear
4:53 AM 46.9 °F - 37.9 °F 71% 29.89 in 10.0 mi NNW 15.0 mph - N/A   Clear
5:53 AM 46.0 °F 40.6 °F 37.9 °F 73% 29.92 in 10.0 mi WNW 11.5 mph - N/A   Partly Cloudy
6:53 AM 50.0 °F - 39.0 °F 66% 29.92 in 10.0 mi NW 19.6 mph 25.3 mph N/A   Clear
7:53 AM 54.0 °F - 37.9 °F 55% 29.91 in 10.0 mi NW 32.2 mph 41.4 mph N/A   Clear
8:53 AM 57.0 °F - 37.0 °F 47% 29.92 in 10.0 mi NNW 26.5 mph 35.7 mph N/A   Clear
9:53 AM 60.1 °F - 36.0 °F 41% 29.89 in 10.0 mi NW 23.0 mph 32.2 mph N/A   Clear
10:53 AM 64.0 °F - 36.0 °F 35% 29.85 in 10.0 mi NW 25.3 mph 38.0 mph N/A   Partly Cloudy
11:53 AM 66.0 °F - 32.0 °F 28% 29.83 in 10.0 mi NW 28.8 mph 35.7 mph N/A   Clear
12:53 PM 66.9 °F - 28.0 °F 23% 29.80 in 10.0 mi NNW 27.6 mph 38.0 mph N/A   Clear
1:53 PM 68.0 °F - 28.9 °F 23% 29.79 in 10.0 mi NNW 32.2 mph 39.1 mph N/A   Clear
2:53 PM 69.1 °F - 28.0 °F 22% 29.78 in 10.0 mi NNW 17.3 mph 36.8 mph N/A   Clear
3:53 PM 71.1 °F - 28.0 °F 20% 29.78 in 10.0 mi NW 21.9 mph 33.4 mph N/A   Partly Cloudy
4:53 PM 70.0 °F - 27.0 °F 20% 29.78 in 10.0 mi NNW 17.3 mph 26.5 mph N/A   Clear
5:53 PM 68.0 °F - 28.0 °F 22% 29.78 in 10.0 mi North 18.4 mph 24.2 mph N/A   Clear
6:53 PM 64.9 °F - 30.0 °F 27% 29.79 in 10.0 mi NNE 18.4 mph 24.2 mph N/A   Partly Cloudy
7:53 PM 59.0 °F - 37.9 °F 46% 29.82 in 10.0 mi NE 19.6 mph - N/A   Clear
8:53 PM 53.1 °F - 39.0 °F 59% 29.86 in 10.0 mi NE 10.4 mph - N/A   Clear
9:53 PM 51.1 °F - 39.0 °F 63% 29.89 in 10.0 mi ENE 5.8 mph - N/A   Clear
10:53 PM 46.0 °F - 37.0 °F 71% 29.90 in 10.0 mi Calm Calm - N/A   Clear
11:53 PM 44.1 °F - 37.0 °F 76% 29.89 in 10.0 mi Calm Calm - N/A   Clear